{"data":{"norad_id":63630,"epoch":"2026-05-25T05:02:28.679424Z","epoch_age_seconds":54074,"freshness":"FRESH","line1":"1 63630U 25081A   26145.21005416  .00002675  00000+0  23842-3 0  9992","line2":"2 63630  45.4106  94.9890 0004589  82.4084 277.7315 14.98606554 59735","mean_motion":14.98606554,"eccentricity":0.0004589,"inclination_deg":45.4106,"raan_deg":94.989,"arg_perigee_deg":82.4084,"mean_anomaly_deg":277.7315,"bstar":0.00023842,"rev_number":5973,"period_min":96.089263466547,"perigee_km":568.01175091698,"apogee_km":574.38985315169,"semimajor_km":6949.3378020343,"source":"CELESTRAK","updated_at":"2026-05-25T13:38:03.846713Z"}}